Regional Weather Roundup
Issued by NWS

Home | Current Version | Previous Version | Text Only | Print | Product List | Glossary Off
Versions: 1 2 3 4 5 6 7 8 9 10 11 12 13 14 15 16 17 18 19 20 21 22 23 24 25 26 27 28 29 30 31 32 33 34 35 36 37 38 39 40 41 42 43 44 45 46 47 48 49 50

000
ASUS43 KBIS 040710
RWRND

NORTH DAKOTA REGIONAL WEATHER ROUNDUP
NATIONAL WEATHER SERVICE BISMARCK ND
200 AM CDT WED MAY 04 2016

NOTE: "FAIR" INDICATES FEW OR NO CLOUDS BELOW 12,000 FEET WITH NO
SIGNIFICANT WEATHER AND/OR OBSTRUCTIONS TO VISIBILITY.


NDZ001>003-009>011-017-040800-
NORTHWEST NORTH DAKOTA

CITY           SKY/WX    TMP DP  RH WIND       PRES   REMARKS
WILLISTON      CLEAR     48  39  71 W3        30.06S
MINOT          CLEAR     51  28  41 SE5       30.07R
MINOT AFB      CLEAR     43  30  60 S5        30.07R
$$

NDZ018>021-031>035-040>046-040800-
SOUTHWEST NORTH DAKOTA

CITY           SKY/WX    TMP DP  RH WIND       PRES   REMARKS
BISMARCK       CLEAR     44  31  60 CALM      30.10R
DICKINSON      PTCLDY    48  35  60 S6        30.08R
GARRISON         N/A     48  30  49 CALM      30.08R
HETTINGER ARPT CLEAR     41  35  79 CALM      30.11R
$$

NDZ004>008-012>016-024-026-027-054-040800-
NORTHEAST NORTH DAKOTA

CITY           SKY/WX    TMP DP  RH WIND       PRES   REMARKS
GRAND FORKS    CLEAR     38  30  73 NW9       30.03R
GRND FRKS AFB  CLEAR     42  31  65 N7        30.04R
DEVILS LAKE    PTCLDY    38  29  70 N6        30.07R
$$

NDZ022-023-025-028>030-036>039-047>053-040800-
SOUTHEAST NORTH DAKOTA

CITY           SKY/WX    TMP DP  RH WIND       PRES   REMARKS
FARGO          CLEAR     44  29  55 N10       30.01R
JAMESTOWN      CLEAR     39  30  70 NW6       30.05R
$$




USA.gov is the U.S. government's official web portal to all federal, state and local government web resources and services.